Regional Weather Roundup
Issued by NWS

Home | Current Version | Previous Version | Text Only | Print | Product List | Glossary Off
Versions: 1 2 3 4 5 6 7 8 9 10 11 12 13 14 15 16 17 18 19 20 21 22 23 24 25 26 27 28 29 30 31 32 33 34 35 36 37 38 39 40 41 42 43 44 45 46 47 48 49 50

000
ASUS44 KMEG 070310
RWRTN
TENNESSEE HOURLY STATE WEATHER ROUNDUP
NATIONAL WEATHER SERVICE MEMPHIS TN
1000 PM CDT MON JUL 06 2015

TNZ002-004-019-021-049-052-054-088>092-070400-
WEST TENNESSEE

CITY           SKY/WX    TMP DP  RH WIND       PRES   REMARKS
MEMPHIS INTL   PTCLDY    80  73  79 S8        30.03R
NWS MEMPHIS      N/A     78 N/A N/A MISG        N/A
JACKSON        CLEAR     76  72  87 S6        30.04R
DYERSBURG        N/A    N/A N/A N/A MISG        N/A
PARIS          CLEAR     75  72  88 S7        30.05R
LEXINGTON      CLEAR     75  72  88 CALM      30.05R
$$

TNZ008-025-027-028-033-062-065-066-070400-
NORTH MIDDLE TENNESSEE

CITY           SKY/WX    TMP DP  RH WIND       PRES   REMARKS
NASHVILLE      PTCLDY    77  72  84 S5        30.07R
CLARKSVILLE    CLEAR     78  73  84 SW6       30.04R
SMYRNA         CLEAR     77  72  84 CALM      30.08R
COOKEVILLE     CLEAR     72  72 100 CALM      30.10R
CROSSVILLE     CLEAR     71  66  84 CALM      30.15R
$$

TNZ061-075-076-078-094-096-097-070400-
SOUTH MIDDLE TENNESSEE

CITY           SKY/WX    TMP DP  RH WIND       PRES   REMARKS
FAYETTEVILLE   CLEAR     75  70  83 S3        30.10R
TULLAHOMA      PTCLDY    73  70  88 CALM      30.12R
WINCHESTER     CLEAR     73  72  94 CALM      30.12R
MCMINNVILLE    CLEAR     73  73 100 CALM      30.11R
COLUMBIA       CLEAR     77  75  94 S5        30.07R
SHELBYVILLE    CLEAR     75  73  94 S5          N/A
$$

TNZ017-018-042-046-047-070400-
NORTHEAST TENNESSEE

CITY           SKY/WX    TMP DP  RH WIND       PRES   REMARKS
TRI CITIES     CLEAR     69  67  93 CALM      30.13R FOG
ELIZABETHTON   PTCLDY    64  64 100 CALM      30.14S FOG
$$

TNZ012-013-036-069-073-074-070400-
CENTRAL EAST TENNESSEE

CITY           SKY/WX    TMP DP  RH WIND       PRES   REMARKS
KNOXVILLE      PTCLDY    75  69  81 SW5       30.10R
OAK RIDGE      CLEAR     74  70  87 CALM      30.11R
GATLINBURG     CLEAR     72  66  83 CALM      30.11R
MORRISTOWN     CLEAR     73  70  88 CALM      30.13R
$$

TNZ083-085-099-070400-
SOUTHEAST TENNESSEE

CITY           SKY/WX    TMP DP  RH WIND       PRES   REMARKS
CHATTANOOGA    CLEAR     78  70  76 SW3       30.10R
$$

SKY/WX REPORTED AS FAIR MEANS FEW OR NO CLOUDS BELOW
12 THOUSAND FEET.



USA.gov is the U.S. government's official web portal to all federal, state and local government web resources and services.